Tracking 33446 objects as of 10-Mar-2026
HD Live streaming from Space Station
objects crossing your sky now

STARLINK-35546

Track STARLINK-35546 now!
10-day predictions
STARLINK-35546 is classified as:


NORAD ID: 66240
Int'l Code: 2025-245G
Perigee: 481.6 km
Apogee: 483.0 km
Inclination: 53.2 °
Period: 94.1 minutes
Semi major axis: 6853 km
RCS: Unknown
Launch date: October 29, 2025
Source: United States (US)
Launch site: AIR FORCE EASTERN TEST RANGE (AFETR)
Your satellite tracking list
Your tracking list is empty




NASA's NSSDC Master Catalog

Two Line Element Set (TLE):
1 66240U 25245G   26068.91311060  .00026979  00000-0  91944-3 0  9992
2 66240  53.1595 282.6512 0001052  90.5564 269.5557 15.30209336 21296
Source of the keplerian elements: AFSPC